#timestamp,LO_Frequency,Hit,StdDev 
1655622015.7,286046999.0,N
1655622035.6,286046998.3,N
1655622055.4,286047001.1,N
1655622075.2,286047000.7,N
1655622095.1,286047000.7,N
1655622096.0,286047000.7,N
1655622115.8,286047000.7,N
1655622135.7,286047000.7,N
1655622155.5,286047000.6,N
1655622175.3,286047000.9,N
1655622195.2,286047000.9,N
1655622215.0,286047000.8,N
1655622215.9,286047000.8,N
1655622235.8,286046998.5,N
1655622255.6,286047000.9,N
1655622275.4,286047000.7,N
1655622295.3,286046999.2,N
1655622315.1,286046999.3,N
1655622335.9,286046999.6,N
1655622355.7,286046997.0,N
1655622375.5,286046997.2,N
1655622395.4,286046997.2,N
1655622415.2,286046999.2,N
1655622435.1,286046997.7,N
1655622436.0,286046997.7,N
1655622455.8,286046997.7,N
1655622475.6,286046996.8,N
1655622495.5,286046997.7,N
1655622515.3,286046995.6,N
1655622535.1,286046995.8,N
1655622555.9,286046996.3,N
1655622575.7,286046997.9,N
1655622595.6,286046995.9,N
1655622615.4,286046995.2,N
1655622635.2,286046995.8,N
1655622655.1,286046995.0,N
1655622656.0,286046995.0,N
1655622675.8,286046997.5,N
1655622695.7,286046999.3,N
1655622715.5,286046997.4,N
1655622735.3,286046999.2,N
1655622755.2,286046998.7,N
1655622775.0,286046998.5,N
1655622775.9,286046998.5,N
1655622795.7,286046999.1,N
1655622815.6,286047000.0,N
1655622835.4,286046999.9,N
1655622855.3,286047000.4,N
1655622875.1,286046998.1,N
1655622876.0,286046998.1,N
1655622895.8,286047001.1,N
1655622915.7,286047000.4,N
1655622935.5,286047000.4,N
1655622955.3,286047000.6,N
1655622975.2,286047000.5,N
1655622995.0,286047000.7,N
1655622995.9,286047000.7,N
1655623015.8,286047000.6,N
1655623035.6,286047000.6,N
1655623055.4,286047000.0,N
1655623075.3,286047000.5,N
1655623095.1,286047000.3,N
1655623115.8,286046999.9,N
1655623135.7,286046999.9,N
1655623155.5,286047000.3,N
1655623175.4,286047000.7,N
1655623195.2,286047000.2,N
1655623215.0,286047000.9,N
1655623215.9,286047000.9,N
1655623235.8,286047000.3,N
1655623255.6,286047000.0,N
1655623275.5,286047000.2,N
1655623295.3,286047002.7,Y
1655623315.1,286047000.3,P
1655623335.9,286046999.7,N
1655623355.7,286047000.3,N
1655623375.5,286047000.3,N
1655623395.4,286046999.9,N
1655623415.2,286047000.6,N
1655623435.1,286047000.0,N
1655623436.0,286047000.0,N
1655623455.8,286047000.4,N
1655623475.6,286046999.8,N
1655623495.5,286047002.0,Y
1655623515.3,286047001.5,P
1655623535.1,286047002.6,P
1655623555.9,286047002.3,N
1655623575.7,286047002.8,N
1655623595.6,286047002.2,N
1655623615.4,286046999.8,N
1655623635.2,286046999.9,N
1655623655.1,286047002.3,N
1655623656.0,286047002.3,N
1655623675.8,286047002.4,N
1655623695.7,286047001.7,N
1655623715.5,286047001.3,N
1655623735.3,286047001.5,N
1655623755.2,286047001.8,N
1655623775.9,286047001.3,N
1655623795.7,286047004.2,Y
1655623815.6,286046999.7,P
1655623835.4,286046999.8,N
1655623855.3,286047000.4,N
1655623875.1,286047000.2,N
1655623876.0,286047000.2,N
1655623895.8,286046999.9,N
1655623915.7,286047000.3,N
1655623935.5,286047000.0,N
1655623955.3,286047001.2,N
1655623975.2,286046998.7,N
1655623995.0,286046998.7,N
1655623995.9,286046998.7,N
1655624015.8,286046998.2,N
1655624035.6,286047000.9,N
1655624055.4,286047002.4,N
1655624075.3,286047002.8,N
1655624095.1,286047002.0,N
1655624115.8,286047002.6,N
1655624135.7,286046999.8,N
1655624155.5,286047000.1,N
1655624175.4,286047002.8,N
1655624195.2,286047002.6,N
1655624215.0,286047001.8,N
1655624215.9,286047001.8,N
1655624235.8,286047001.3,N
1655624255.6,286047004.3,Y
1655624275.5,286047002.0,P
1655624295.3,286047000.3,N
1655624315.1,286047000.3,N
1655624335.9,286047000.3,N
1655624355.7,286047000.0,N
1655624375.5,286046999.7,N
1655624395.4,286047000.0,N
1655624415.2,286046999.7,N
1655624435.1,286047000.3,N
1655624436.0,286047000.3,N
1655624455.8,286047000.1,N
1655624475.7,286047002.4,Y
1655624495.5,286047002.3,P
1655624515.3,286047002.2,N
1655624535.2,286046999.8,N
1655624555.0,286046999.9,N
1655624555.9,286046999.9,N
1655624575.7,286046999.9,N
1655624595.6,286047000.3,N
1655624615.4,286047000.4,N
1655624635.3,286047000.4,N
1655624655.1,286047002.8,Y
1655624656.0,286047002.8,P
1655624675.8,286047000.3,N
1655624695.7,286047000.6,N
1655624715.5,286046998.1,N
1655624735.4,286047000.7,N
1655624755.2,286046998.9,N
1655624775.0,286046998.5,N
1655624775.9,286046998.5,N
1655624795.8,286047000.9,N
1655624815.6,286047000.2,N
1655624835.4,286046999.9,N
1655624855.3,286047000.2,N
1655624875.1,286047000.4,N
1655624895.9,286047000.0,N
1655624915.7,286047000.8,N
1655624935.5,286047000.4,N
1655624955.4,286047000.3,N
1655624975.2,286047000.8,N
1655624995.0,286047000.8,N
1655624995.9,286047000.8,N
1655625015.8,286047000.9,N
1655625035.6,286047000.8,N
1655625055.5,286047000.8,N
1655625075.3,286047001.2,N
1655625095.2,286047001.0,N
1655625115.9,286047000.8,N
1655625135.7,286047001.0,N
1655625155.6,286046998.7,N
1655625175.4,286046998.3,N
1655625195.2,286046998.4,N
1655625215.1,286047000.8,N
1655625216.0,286047000.8,N
1655625235.8,286047001.0,N
1655625255.7,286046999.9,N
1655625275.5,286046998.3,N
1655625295.3,286047001.1,N
1655625315.2,286047001.1,N
1655625335.0,286047000.8,N
1655625335.9,286047000.8,N
1655625355.7,286047000.3,N
1655625375.6,286046998.2,N
1655625395.4,286047000.9,N
1655625415.3,286047000.8,N
1655625435.1,286047000.7,N
1655625455.8,286047000.8,N
1655625475.7,286047000.0,N
1655625495.5,286047000.8,N
1655625515.4,286046999.8,N
1655625535.2,286046999.7,N
1655625555.0,286047000.0,N
1655625556.0,286047000.0,N
1655625575.8,286047000.5,N
1655625595.6,286046999.9,N
